User: anonymous   Login
Location: Buffign�court
(47.8126°N, 6.0176°E)
Time: 22:38:29
(UTC+00:00)
Language:

SPOT 1/Viking Rocket - Orbit

View from above orbital plane
View from above orbital plane
View from above satellite
View from above satellite

Ground track
Ground track

The orbit data is extracted from the following two-line orbital elements,

1 16615U 86019C   21267.17616205  .00000046  00000-0  32818-4 0  9995
2 16615  98.4197 326.2797 0012865 116.9533 263.2464 14.31861254862722
Epoch (UTC): 24 September 2021 04:13:40
Eccentricity: 0.0012865
inclination: 98.4197°
perigee height: 776 km
apogee height: 795 km
right ascension of ascending node: 326.2797°
argument of perigee: 116.9533°
revolutions per day: 14.31861254
mean anomaly at epoch: 263.2464°
orbit number at epoch: 86272

The dashed part of the orbit path shows where the satellite is in the earth's shadow,  

DLR